Tracking 19286 objects as of 19-Nov-2018
HD Live streaming from Space Station
objects crossing your sky now

FLOCK 2EP 18


FLOCK 2EP 18 is no longer on orbit
FLOCK 2EP 18 is classified as:


NORAD ID: 41769
Int'l Code: 1998-067KM
Perigee: N/A
Apogee: N/A
Inclination: N/A
Period: N/A
Semi major axis: N/A
RCS: N/A
Launch date: November 20, 1998
Source: United States (US)
Launch site: TYURATAM MISSILE AND SPACE COMPLEX (TTMTR)
Decay date: 2018-11-07
aabbcc
Your satellite tracking list
Your tracking list is empty




NASA's NSSDC Master Catalog

Two Line Element Set (TLE):
1 41769U 98067KM  18311.16413517  .17547955  12625-4  58790-3 0  9994
2 41769  51.5984 314.3630 0006556 347.8382  12.0272 16.44264389122712
Source of the keplerian elements: AFSPC